Port Clinton Carl R Keller Fi, OH

8:25 AM EDT on June 29, 2017 (GMT -0400)
Keller

Weather History for KPCW - March, 2014

Change the Weather History Date:

Tuesday, March 25, 2014

  Actual Average (KTTF) Record (KTTF)
Temperature  
Mean Temperature 26 °F -  
Max Temperature 33 °F 46 °F 81 °F (1939)
Min Temperature 19 °F 28 °F 6 °F (1974)
Degree Days  
Heating Degree Days 39    
Moisture  
Dew Point 19 °F    
Average Humidity 72    
Maximum Humidity 86    
Minimum Humidity 55    
Precipitation  
Precipitation 0.00 in - - ()
Sea Level Pressure  
Sea Level Pressure 30.00 in    
Wind  
Wind Speed 8 mph (WSW)    
Max Wind Speed 17 mph    
Max Gust Speed -    
Visibility 9 miles    
Events Rain , Snow    
Averages and records for this station are not official NWS values.
T = Trace of Precipitation, MM = Missing Value Source: NWS Daily Summary

Daily Weather History Graph

Daily Weather History Graph

Search for Another Location

Airport or City:

Trip Planner

Search our weather history database for the weather conditions in past years. The results will help you decide how hot, cold, wet, or windy it might be!

Date:

Astronomy

Mar. 25, 2014 Rise Set
Actual Time 7:26 AM EDT 7:49 PM EDT
Civil Twilight 6:58 AM EDT 8:16 PM EDT
Nautical Twilight 6:26 AM EDT 8:49 PM EDT
Astronomical Twilight 5:52 AM EDT 9:23 PM EDT
Moon 3:50 AM EDT (3/25) 2:14 PM EDT (3/25)
Length of Visible Light 13h 18m
Length of Day
12h 22m
Waning Crescent, 32% of the Moon is Illuminated
Mar 25
Waning Crescent
Mar 30
New
Apr 7
First Quarter
Apr 15
Full
Apr 22
Last Quarter

Hourly Weather History & Observations

Time (EDT) Temp. Windchill Dew Point Humidity Pressure Visibility Wind Dir Wind Speed Gust Speed Precip Events Conditions
12:14 AM 28.4 °F 20.4 °F 17.6 °F 64% 30.09 in 10.0 mi WNW 8.1 mph - N/A   Clear
12:33 AM 28.4 °F 21.2 °F 17.6 °F 64% 30.08 in 10.0 mi West 6.9 mph - N/A   Clear
12:54 AM 27.1 °F 19.7 °F 18.1 °F 69% 30.09 in 10.0 mi West 6.9 mph - N/A   Clear
1:14 AM 26.6 °F 21.2 °F 17.6 °F 69% 30.08 in 10.0 mi West 4.6 mph - N/A   Clear
1:33 AM 26.6 °F - 19.4 °F 74% 30.07 in 10.0 mi Calm Calm - N/A   Clear
1:54 AM 25.2 °F - 17.1 °F 71% 30.07 in 10.0 mi Calm Calm - N/A   Clear
2:14 AM 26.6 °F - 19.4 °F 74% 30.07 in 10.0 mi Calm Calm - N/A   Clear
2:33 AM 21.2 °F - 15.8 °F 80% 30.06 in 10.0 mi Calm Calm - N/A   Clear
2:54 AM 20.1 °F 15.2 °F 14.0 °F 77% 30.04 in 10.0 mi South 3.5 mph - N/A   Clear
3:13 AM 19.4 °F - 12.2 °F 74% 30.04 in 10.0 mi Calm Calm - N/A   Clear
3:34 AM 21.2 °F 16.4 °F 14.0 °F 74% 30.04 in 10.0 mi South 3.5 mph - N/A   Clear
3:53 AM 20.1 °F 12.3 °F 14.0 °F 77% 30.03 in 10.0 mi South 5.8 mph - N/A   Clear
4:13 AM 19.4 °F 12.8 °F 15.8 °F 86% 30.02 in 10.0 mi SSW 4.6 mph - N/A   Clear
4:34 AM 19.4 °F 11.5 °F 15.8 °F 86% 30.01 in 10.0 mi South 5.8 mph - N/A   Clear
4:53 AM 20.1 °F 13.6 °F 14.0 °F 77% 30.01 in 10.0 mi South 4.6 mph - N/A   Clear
5:13 AM 19.4 °F 11.5 °F 12.2 °F 74% 30.00 in 10.0 mi South 5.8 mph - N/A   Clear
5:34 AM 19.4 °F 11.5 °F 14.0 °F 80% 29.98 in 10.0 mi South 5.8 mph - N/A   Scattered Clouds
5:53 AM 20.1 °F 12.3 °F 14.0 °F 77% 29.97 in 10.0 mi South 5.8 mph - N/A   Scattered Clouds
6:14 AM 21.2 °F 13.6 °F 15.8 °F 80% 29.98 in 10.0 mi South 5.8 mph - N/A   Partly Cloudy
6:34 AM 23.0 °F 14.7 °F 15.8 °F 74% 29.98 in 10.0 mi SSW 6.9 mph - N/A   Clear
6:53 AM 24.1 °F 17.0 °F 16.2 °F 72% 29.96 in 10.0 mi SSW 5.8 mph - N/A   Clear
7:13 AM 24.8 °F 16.1 °F 15.8 °F 69% 29.96 in 10.0 mi SSW 8.1 mph - N/A   Clear
7:34 AM 24.8 °F 16.1 °F 15.8 °F 69% 29.96 in 10.0 mi South 8.1 mph - N/A   Clear
7:53 AM 23.0 °F 14.7 °F 15.1 °F 72% 29.97 in 10.0 mi SSW 6.9 mph - N/A   Clear
8:13 AM 24.8 °F 16.1 °F 15.8 °F 69% 29.95 in 10.0 mi South 8.1 mph - N/A   Partly Cloudy
8:33 AM 26.6 °F 19.1 °F 17.6 °F 69% 29.95 in 10.0 mi SSW 6.9 mph - N/A   Clear
8:54 AM 26.1 °F 18.4 °F 16.2 °F 66% 29.95 in 10.0 mi SSW 6.9 mph - N/A   Clear
9:14 AM 28.4 °F 18.5 °F 15.8 °F 59% 29.95 in 10.0 mi SSW 11.5 mph - N/A   Clear
9:33 AM 28.4 °F 19.7 °F 17.6 °F 64% 29.95 in 10.0 mi SSW 9.2 mph - N/A   Clear
9:54 AM 30.0 °F 19.1 °F 17.1 °F 59% 29.93 in 10.0 mi SSW 15.0 mph - N/A   Mostly Cloudy
10:13 AM 30.2 °F 20.2 °F 15.8 °F 55% 29.94 in 10.0 mi SSW 12.7 mph - N/A   Overcast
10:33 AM 30.2 °F 20.2 °F 17.6 °F 60% 29.94 in 10.0 mi SSW 12.7 mph - N/A   Overcast
10:54 AM 32.0 °F 22.5 °F 19.4 °F 60% 29.94 in 10.0 mi SSW 12.7 mph - N/A   Overcast
11:13 AM 30.2 °F 20.2 °F 19.4 °F 64% 29.93 in 10.0 mi SSW 12.7 mph - N/A   Overcast
11:34 AM 33.8 °F 24.3 °F 21.2 °F 60% 29.93 in 10.0 mi SW 13.8 mph - N/A   Overcast
11:43 AM 32.0 °F 22.5 °F 21.2 °F 64% - 7.0 mi SSW 12.7 mph - N/A   Mostly Cloudy
12:14 PM 33.8 °F 24.3 °F 24.8 °F 70% - 10.0 mi SW 13.8 mph - N/A Snow Light Snow
12:33 PM 32.0 °F 23.0 °F 24.8 °F 75% 29.94 in 8.0 mi WSW 11.5 mph - N/A Snow Light Snow
12:44 PM 30.2 °F 19.3 °F 24.8 °F 80% 29.94 in 3.0 mi WSW 15.0 mph - N/A Snow Light Snow
1:08 PM 30.2 °F 20.2 °F 26.6 °F 86% 29.94 in 0.5 mi West 12.7 mph - N/A Snow Snow
1:34 PM 28.4 °F 18.5 °F 24.8 °F 86% 29.95 in 1.0 mi WNW 11.5 mph - N/A Snow Light Snow
1:46 PM 28.4 °F 18.5 °F 24.8 °F 86% - 1.8 mi NW 11.5 mph - N/A Snow Light Snow
2:04 PM 28.4 °F 19.7 °F 24.8 °F 86% 29.95 in 10.0 mi WNW 9.2 mph - N/A   Overcast
2:34 PM 32.0 °F 23.6 °F 26.6 °F 80% 29.93 in 10.0 mi NW 10.4 mph - N/A   Mostly Cloudy
2:53 PM 30.2 °F 21.9 °F 26.6 °F 86% 29.94 in 10.0 mi WNW 9.2 mph - N/A   Mostly Cloudy
3:14 PM 30.2 °F 21.9 °F 24.8 °F 80% 29.94 in 10.0 mi WNW 9.2 mph - N/A   Overcast
3:33 PM - - - N/A% - 1.2 mi West 13.8 mph - N/A   Overcast
3:37 PM - - - N/A% - 1.8 mi WNW 15.0 mph - N/A   Overcast
4:14 PM 33.8 °F 26.4 °F 24.8 °F 70% 29.95 in 10.0 mi WNW 9.2 mph - N/A   Clear
4:33 PM 30.2 °F 20.2 °F 24.8 °F 80% - 3.0 mi NW 12.7 mph - N/A Snow Light Snow
4:42 PM 30.2 °F 21.3 °F 23.0 °F 75% 29.96 in 2.0 mi WNW 10.4 mph - N/A Snow Light Snow
5:14 PM 30.2 °F 22.6 °F 23.0 °F 75% 29.95 in 10.0 mi West 8.1 mph - N/A   Scattered Clouds
5:33 PM 30.2 °F 18.5 °F 21.2 °F 69% 29.95 in 10.0 mi WNW 17.3 mph - N/A   Mostly Cloudy
5:54 PM 30.2 °F 19.8 °F 21.2 °F 69% 29.97 in 10.0 mi WNW 13.8 mph - N/A   Overcast
6:13 PM 30.2 °F 21.3 °F 21.2 °F 69% - 10.0 mi WNW 10.4 mph - N/A Rain Light Freezing Rain
6:33 PM 28.4 °F 18.0 °F 21.2 °F 74% 29.99 in 10.0 mi West 12.7 mph - N/A   Mostly Cloudy
6:54 PM 28.4 °F 17.5 °F 21.2 °F 74% 29.99 in 10.0 mi West 13.8 mph - N/A   Mostly Cloudy
7:13 PM 28.4 °F 18.0 °F 19.4 °F 69% 30.00 in 5.0 mi West 12.7 mph - N/A Snow Light Snow
7:33 PM 28.4 °F 17.0 °F 19.4 °F 69% 30.02 in 10.0 mi West 15.0 mph - N/A   Overcast
7:54 PM 26.6 °F 15.7 °F 19.4 °F 74% 30.03 in 10.0 mi West 12.7 mph - N/A   Mostly Cloudy
8:13 PM 26.6 °F 16.8 °F 19.4 °F 74% 30.02 in 10.0 mi West 10.4 mph - N/A   Scattered Clouds
8:33 PM 26.6 °F 15.7 °F 17.6 °F 69% 30.03 in 10.0 mi West 12.7 mph - N/A   Mostly Cloudy
8:54 PM 26.6 °F 15.7 °F 19.4 °F 74% 30.05 in 10.0 mi West 12.7 mph - N/A   Mostly Cloudy
9:13 PM 26.6 °F 14.7 °F 19.4 °F 74% 30.07 in 10.0 mi West 15.0 mph - N/A   Overcast
9:33 PM 26.6 °F 13.8 °F 17.6 °F 69% 30.07 in 10.0 mi West 17.3 mph - N/A   Mostly Cloudy
9:54 PM 24.8 °F 12.4 °F 17.6 °F 74% 30.08 in 10.0 mi West 15.0 mph - N/A   Overcast
10:13 PM 24.8 °F 12.4 °F 15.8 °F 69% 30.09 in 10.0 mi West 15.0 mph - N/A   Mostly Cloudy
10:34 PM 24.8 °F 12.4 °F 14.0 °F 64% 30.10 in 10.0 mi West 15.0 mph - N/A   Mostly Cloudy
10:53 PM 24.8 °F 12.4 °F 15.8 °F 69% 30.11 in 10.0 mi West 15.0 mph - N/A   Overcast
11:13 PM 24.8 °F 12.4 °F 15.8 °F 69% 30.12 in 10.0 mi West 15.0 mph - N/A   Overcast
11:33 PM 24.8 °F 13.4 °F 14.0 °F 64% 30.13 in 10.0 mi West 12.7 mph - N/A   Overcast
11:53 PM 23.0 °F 10.6 °F 14.0 °F 68% 30.13 in 10.0 mi West 13.8 mph - N/A   Overcast